Theta_e
310 312 314 314 316 318 321 325 326 328 331 335 339 342 342 343 345 348 344 343 342 342 340 333 330 327 325 324 321 323 324 321
309 311 312 312 313 313 314 315 317 318 322 322 322 322 325 324 323 333 341 340 340 338 336 329 328 325 323 322 320 319 320 321
305 306 308 309 310 310 311 311 312 313 314 317 323 323 322 323 319 321 321 327 336 335 335 326 326 325 323 322 321 319 318 315
304 305 307 308 309 309 310 311 312 313 314 313 314 317 322 321 320 318 319 320 324 327 330 326 324 325 322 322 321 319 313 313
303 304 305 306 308 310 310 311 311 311 314 313 313 310 310 315 319 323 323 320 320 321 324 324 323 323 322 322 322 319 314 311
303 303 305 306 308 308 309 310 310 311 311 311 311 311 312 313 315 319 319 323 322 320 321 316 317 319 320 320 320 318 316 314
303 305 305 305 307 307 308 307 307 309 309 309 310 312 312 312 313 314 314 318 318 321 321 318 318 317 318 320 318 318 315 315
303 303 303 304 304 305 305 305 305 306 307 308 308 309 312 312 313 315 314 313 315 318 320 320 319 316 317 316 318 317 317 314
302 302 302 301 302 303 304 304 304 305 306 307 307 308 309 311 311 314 314 313 313 316 318 319 319 317 319 318 317 316 315 313
300 301 300 301 301 302 303 303 303 304 304 306 306 307 308 310 312 313 312 313 312 314 315 316 317 319 319 318 318 318 314 314
299 299 299 300 301 302 303 303 303 303 304 304 304 305 307 308 311 310 310 311 311 312 313 314 316 317 318 317 317 318 316 314
297 298 299 300 301 301 302 302 302 302 303 303 302 303 304 306 308 307 308 309 308 307 308 310 310 312 314 314 314 313 314 314
297 297 298 298 299 300 300 301 300 302 302 301 299 299 302 307 306 305 305 303 304 305 306 305 304 306 309 310 311 314 314 313
295 296 297 297 298 299 299 300 299 298 297 296 297 300 303 303 303 303 303 302 301 301 299 300 300 301 301 302 305 304 311 312
294 295 296 296 297 298 298 298 297 293 294 295 298 302 303 301 301 300 299 300 300 300 299 299 300 300 302 302 303 303 303 308
293 294 295 296 296 296 297 296 293 291 294 296 296 297 298 297 298 300 300 299 299 299 300 299 300 300 300 300 299 299 301 300
293 294 295 296 295 294 295 293 291 289 288 291 295 297 299 299 300 300 300 299 298 298 297 297 298 298 293 292 293 295 298 300
294 294 295 296 294 294 294 291 290 289 289 289 293 295 297 298 299 299 298 298 297 295 294 294 294 296 292 291 290 292 294 297
294 294 295 294 295 294 295 294 292 291 291 291 292 293 294 295 295 294 294 295 294 293 293 293 292 293 291 290 289 291 293 295
Wind_Speed
8 10 11 13 14 14 16 14 16 13 11 11 9 9 7 7 9 10 13 11 13 14 11 10 12 10 10 10 13 11 12 13
8 11 12 13 14 15 16 15 15 12 10 8 8 9 5 7 9 14 12 10 11 12 10 11 13 13 15 15 11 15 11 10
7 9 10 12 13 13 13 14 14 12 10 10 7 5 3 2 3 7 9 12 11 10 11 10 15 12 16 17 16 10 7 14
7 8 10 11 13 14 15 15 16 13 14 10 9 10 5 4 3 4 4 7 9 7 8 11 14 14 13 17 17 18 12 13
6 8 10 11 11 12 14 15 17 15 16 13 15 12 11 10 10 6 6 7 5 7 8 7 8 10 14 15 14 17 15 17
7 8 9 11 12 12 12 13 14 14 15 15 12 14 12 11 9 11 10 8 9 5 7 4 7 3 2 10 10 17 14 14
7 9 10 11 12 13 13 14 15 15 14 16 17 17 15 13 13 11 9 8 8 10 8 5 5 4 4 3 1 7 8 10
9 12 13 13 14 14 13 16 18 18 18 18 18 19 19 19 17 12 13 11 9 9 10 9 6 6 6 4 5 6 8 9
11 13 13 13 14 14 14 17 18 19 19 19 19 20 14 13 16 13 10 10 10 12 11 11 12 8 6 6 6 9 6 5
13 13 13 13 14 15 15 16 18 18 21 18 20 20 21 18 18 13 9 12 10 12 14 14 13 12 13 12 9 9 7 9
14 13 15 15 15 14 14 15 17 19 19 18 18 21 19 19 16 13 14 11 12 12 12 15 15 13 13 13 13 13 14 11
13 14 15 15 14 16 17 16 18 16 14 17 19 20 18 19 10 9 9 10 11 12 12 14 13 14 12 10 12 15 15 13
15 15 15 15 16 17 17 19 18 18 20 20 18 14 16 11 6 8 10 9 10 10 10 12 13 12 11 11 11 13 14 16
15 15 15 16 17 18 19 20 19 22 20 17 13 14 4 5 5 6 7 8 9 9 9 11 12 11 11 10 9 10 13 14
16 16 16 18 15 18 19 18 20 18 18 11 5 6 7 7 7 7 8 9 9 8 7 8 9 10 11 10 11 8 9 11
17 17 19 17 15 14 17 14 16 16 18 8 7 7 8 6 5 6 7 8 9 10 10 10 11 11 8 9 11 11 10 10
17 18 19 15 15 12 14 9 13 12 12 13 10 9 8 7 8 8 8 9 10 10 11 12 12 9 10 10 10 12 15 15
16 18 16 12 11 13 11 4 8 8 9 11 13 13 12 11 11 11 11 11 10 10 10 11 13 13 11 13 13 12 14 14
15 13 13 12 10 11 10 4 7 8 8 10 11 12 12 11 11 11 10 8 10 10 10 10 11 11 9 10 11 13 11 14
Wind_Direction
36 32 23 34 26 24 16 19 17 14 11 356 6 340 315 267 259 258 245 237 223 206 203 178 177 184 182 178 176 183 184 189
35 27 30 19 25 16 16 13 12 3 5 12 4 0 345 4 4 328 256 228 230 222 208 179 181 186 185 182 177 184 186 178
44 30 25 24 18 13 7 6 5 1 3 347 350 341 319 305 329 331 354 343 250 218 223 188 191 197 193 190 186 186 183 169
40 19 17 9 16 4 356 357 351 356 354 343 336 325 294 300 314 306 344 346 334 329 235 198 196 202 202 193 191 182 176 181
14 13 10 0 10 360 354 351 342 345 341 339 336 316 312 320 308 303 309 298 311 310 332 347 235 216 223 199 193 193 179 178
7 3 350 340 354 354 345 338 333 337 335 328 321 311 311 303 291 288 290 293 291 289 269 17 42 306 272 265 210 204 186 185
339 335 336 336 340 345 340 335 328 327 327 325 319 308 303 298 292 285 275 270 272 285 286 285 253 204 243 254 236 223 176 203
326 325 334 339 342 338 336 334 327 324 322 318 312 305 301 296 287 279 284 283 267 257 259 252 242 226 241 174 202 240 220 209
315 328 341 336 330 328 331 325 322 324 318 314 315 308 294 284 288 297 300 295 291 297 289 267 251 242 236 224 217 216 172 223
328 337 331 324 325 327 326 327 323 317 314 319 313 306 300 289 279 275 269 275 283 289 292 286 280 273 241 230 222 219 192 220
336 328 327 327 322 317 323 320 320 318 318 303 311 305 298 296 285 282 280 286 282 290 299 301 300 290 275 254 249 235 220 213
328 319 325 316 322 322 308 332 327 313 308 308 305 299 300 293 279 309 307 321 308 303 304 304 307 306 306 289 275 253 232 217
321 321 315 321 323 320 335 339 331 326 311 308 305 295 294 281 344 344 339 315 297 297 308 310 299 301 315 334 297 272 258 236
318 319 325 325 327 335 343 335 338 324 312 298 294 289 267 343 343 338 315 312 307 318 307 298 305 302 300 309 302 312 276 248
320 321 323 321 345 341 331 348 336 325 306 288 291 338 349 2 1 338 320 313 301 306 306 289 281 280 285 282 281 286 292 304
317 324 315 325 347 333 327 357 345 341 350 9 14 339 334 308 316 326 336 323 321 317 321 320 308 312 301 349 332 321 304 303
324 310 321 342 337 324 327 2 345 349 349 344 333 317 319 335 334 330 328 328 334 332 326 323 317 307 14 1 337 305 293 286
301 323 329 334 320 325 332 8 322 336 338 343 323 321 321 331 327 325 326 331 324 322 320 316 312 314 339 335 318 301 292 290
316 321 327 334 324 326 330 315 301 323 329 328 326 327 323 324 319 315 313 309 308 315 312 303 297 294 277 279 288 291 279 276